• MPC Preparation (Info)

  • MPEC 2015-T51 : 2015 TG24

    The following Minor Planet Electronic Circular may be linked-to from your own Web pages, but must not otherwise be redistributed electronically.

    A form allowing access to any MPEC is at the bottom of this page.


    Read MPEC 2015-T50 Read MPEC 2015-T52


    M.P.E.C. 2015-T51                                Issued 2015 Oct. 10, 17:38 UT
    
         The Minor Planet Electronic Circulars contain information on unusual
             minor planets and routine data on comets.  They are published
        on behalf of Division F of the International Astronomical Union by the
              Minor Planet Center, Smithsonian Astrophysical Observatory,
                              Cambridge, MA 02138, U.S.A.
    
                 Prepared using the Tamkin Foundation Computer Network
    
                                  MPC@CFA.HARVARD.EDU
                URL https://www.minorplanetcenter.net/    ISSN 1523-6714
    
                                       2015 TG24
    
    Observations:
         K15T24G* C2015 10 09.35353 02 43 08.86 -08 53 59.4          19.7 VqET051703
         K15T24G  C2015 10 09.35854 02 42 59.99 -08 55 40.6          19.4 VqET051703
         K15T24G  C2015 10 09.36355 02 42 51.09 -08 57 22.9          19.9 VqET051703
         K15T24G  C2015 10 09.36855 02 42 42.30 -08 59 02.8          19.3 VqET051703
         K15T24G  C2015 10 09.39877 02 41 48.29 -09 09 13.9          19.5 VqET051703
         K15T24G  C2015 10 09.39927 02 41 47.44 -09 09 25.4                qET051703
         K15T24G  C2015 10 09.40077 02 41 44.77 -09 09 53.5                qET051703
         K15T24G  C2015 10 09.42923 02 40 53.10 -09 19 36.3                qET051703
         K15T24G  C2015 10 09.43078 02 40 50.36 -09 20 09.6                qET051703
         K15T24G  C2015 10 09.43179 02 40 48.31 -09 20 31.1          19.2 VqET051703
         K15T24G KC2015 10 09.53040 02 38 17.77 -09 45 47.0          19.0 RtET051474
         K15T24G KC2015 10 09.53101 02 38 16.64 -09 46 00.2          18.6 RtET051474
         K15T24G KC2015 10 09.53163 02 38 15.45 -09 46 13.8          19.8 RtET051474
         K15T24G KC2015 10 09.53306 02 38 12.73 -09 46 44.9          18.8 RtET051474
         K15T24G KC2015 10 09.53368 02 38 11.58 -09 46 58.5          19.3 RtET051474
         K15T24G KC2015 10 09.53429 02 38 10.37 -09 47 11.8          18.7 RtET051474
         K15T24G  C2015 10 10.24490 02 12 45.93 -15 03 15.0          19.4 RuET051926
         K15T24G  C2015 10 10.24676 02 12 40.75 -15 04 12.8          19.2 RuET051926
         K15T24G  C2015 10 10.24863 02 12 35.53 -15 05 11.1          19.5 RuET051926
         K15T24G KC2015 10 10.57891 01 55 55.51 -17 55 20.9          18.9 RtET051474
         K15T24G KC2015 10 10.57933 01 55 54.05 -17 55 35.7          18.3 RtET051474
         K15T24G KC2015 10 10.58523 01 55 33.33 -17 59 03.8          18.8 RtET051474
         K15T24G KC2015 10 10.58566 01 55 31.84 -17 59 19.3          18.5 RtET051474
         K15T24G KC2015 10 10.60390 01 54 27.79 -18 10 06.8          18.4 RtET051474
         K15T24G KC2015 10 10.60433 01 54 26.36 -18 10 21.4          18.1 RtET051474
         K15T24G KC2015 10 10.60475 01 54 24.86 -18 10 36.6          18.3 RtET051474
    
    Observer details:
    474 Mount John Observatory, Lake Tekapo.  Observers A. C. Gilmore,
        P. M. Kilmartin.  Measurer P. M. Kilmartin.  1.0-m f/7.7 reflector + CCD.
    703 Catalina Sky Survey.  Observer R. E. Hill.  Measurers E. J. Christensen,
        D. C. Fuls, A. R. Gibbs, A. D. Grauer, R. E. Hill, J. A. Johnson,
        R. A. Kowalski, S. M. Larson, R. G. Matheny, F. C. Shelly.  0.68-m Schmidt
        + CCD.
    926 Tenagra II Observatory.  Observers M. Schwartz, P. R. Holvorcem.  Measurer
        M. Schwartz.  0.41-m f/3.75 astrograph + CCD.
    
    Orbital elements:
    2015 TG24                                                Earth MOID = 0.0037 AU
    Epoch 2016 Jan. 13.0 TT = JDT 2457400.5                 MPC
    M  16.49954              (2000.0)            P               Q
    n   1.52801349     Peri.  151.14633     -0.99274613     -0.11732706
    a   0.7465369      Node    22.16204     +0.09255397     -0.88517581
    e   0.4435299      Incl.    3.99145     +0.07673903     -0.45022011
    P   0.65           H   26.9           G   0.15           U   8
    Residuals in seconds of arc
    151009 703  0.8-  1.1+    151009 703  1.2-  0.1+    151010 926  1.1+  0.5-
    151009 703  1.3-  0.4+    151009 474  0.4+  0.2-    151010 474  0.3+  0.2-
    151009 703 (1.8-  1.1-)   151009 474  0.7+  0.2-    151010 474  0.4+  0.2-
    151009 703  0.7-  0.3-    151009 474  0.5+  0.3-    151010 474  1.5-  0.4+
    151009 703  0.4+  1.0+    151009 474  0.3+  0.3-    151010 474  1.3-  0.1+
    151009 703  1.1+  0.3-    151009 474  0.6+  0.4-    151010 474  0.3-  0.1-
    151009 703 (1.6+  2.1+)   151009 474  0.1-  0.5-    151010 474  1.0+  0.6+
    151009 703 (0.7+  2.2+)   151010 926  0.7-  0.2-    151010 474  0.7+  0.3+
    151009 703 (1.9+  0.8+)   151010 926  0.2+  0.3-
    
    Ephemeris:
    2015 TG24                a,e,i = 0.75, 0.44, 4                   q = 0.4154
    Date    TT    R. A. (2000) Decl.     Delta      r     Elong.  Phase     V
    2015 09 10    03 54 42.8 +09 31 14   0.1799  1.0761   107.9    63.0    25.6
    ...
    2015 09 25    03 56 28.7 +07 53 40   0.09734 1.0577   121.9    53.6    23.9
    ...
    2015 10 03    03 44 24.1 +04 35 43   0.05305 1.0374   132.5    45.3    22.3
    ...
    2015 10 09    02 51 44.0 -07 00 33   0.02121 1.0172   148.3    31.1    19.9
    2015 10 10    02 22 30.4 -12 59 25   0.01655 1.0134   151.7    27.8    19.3
    2015 10 11    01 29 30.0 -22 31 08   0.01267 1.0095   150.0    29.6    18.7
    ...
    2015 10 17    17 33 19.0 -24 28 38   0.02779 0.9836    60.9   117.7    23.8
    ...
    2015 10 25    16 44 24.2 -16 36 27   0.07089 0.9423    41.1   136.1    27.4
    ...
    2015 11 09    16 18 38.6 -13 51 26   0.1587  0.8440    20.5   155.7    32.2
    
    A. U. Tomatic                (C) Copyright 2015 MPC           M.P.E.C. 2015-T51
    

    Read MPEC 2015-T50 Read MPEC 2015-T52


    MPEC number:

    Enter an MPEC number in one of the following forms:

    • 1997-B01 (the full form)
    • J97B01 (the packed version of the full form)
    • B01 (the abbreviated form)